Tracking 30995 objects as of 7-Jul-2025
HD Live streaming from Space Station
objects crossing your sky now

TIANQI 23

Track TIANQI 23 now!
10-day predictions


NORAD ID: 57794
Int'l Code: 2023-135C
Perigee: 813.2 km
Apogee: 832.4 km
Inclination: 50.0 °
Period: 101.2 minutes
Semi major axis: 7193 km
RCS: Unknown
Launch date: September 5, 2023
Source: People's Republic of China (PRC)
Launch site: Yellow Sea Launch Area, China (YSLA)
Your satellite tracking list
BEIDOU 3G1
Track 1 satellite(s)




NASA's NSSDC Master Catalog

Two Line Element Set (TLE):
1 57794U 23135C   25187.77829826  .00000002  00000-0  71333-4 0  9991
2 57794  49.9707 165.6034 0013355 134.5868 225.6136 14.22862564 95444
Source of the keplerian elements: AFSPC